Binghamton, NY

5:23 PM EST on November 16, 2019 (GMT -0500)
Binghamton Regional-Link

Weather History for KBGM - September, 2019

Change the Weather History Date:

Friday, September 6, 2019

  Actual Average Record
Temperature  
Mean Temperature 57 °F 63 °F  
Max Temperature 69 °F 72 °F 90 °F (1998)
Min Temperature 45 °F 54 °F 39 °F (1988)
Degree Days  
Heating Degree Days 8 4  
Month to date heating degree days 20 19  
Since 1 July heating degree days 57 82  
Cooling Degree Days 0 2  
Month to date cooling degree days 0 12  
Year to date cooling degree days 362 360  
Growing Degree Days 7 (Base 50)    
Moisture  
Dew Point 48 °F    
Average Humidity 74    
Maximum Humidity 100    
Minimum Humidity 48    
Precipitation  
Precipitation T in 0.12 in 1.83 in (1979)
Month to date precipitation 1.34 0.69  
Year to date precipitation 30.13 26.90  
Snow  
Snow 0.00 in 0.00 in 0.00 in (2002)
Month to date snowfall 0.0 0.0  
Since 1 July snowfall 0.0 0.0  
Since 1 September snowfall 0.0 0.0  
Snow Depth 0.00 in    
Sea Level Pressure  
Sea Level Pressure 29.96 in    
Wind  
Wind Speed 6 mph (East)    
Max Wind Speed 16 mph    
Max Gust Speed 21 mph    
Visibility 7 miles    
Events Fog    
T = Trace of Precipitation, MM = Missing Value Source: NWS Daily Summary

Daily Weather History Graph

Daily Weather History Graph

Search for Another Location

Airport or City:

Astronomy

Sep. 06, 2019 Rise Set
Actual Time 6:34 AM EDT 7:29 PM EDT
Civil Twilight 6:05 AM EDT 7:58 PM EDT
Nautical Twilight 5:31 AM EDT 8:31 PM EDT
Astronomical Twilight 4:56 AM EDT 9:07 PM EDT
Moon 2:48 PM EDT (9/6) No Moon Set
Length of Visible Light 13h 52m
Length of Day
12h 55m
First Quarter, 55% of the Moon is Illuminated
Sep 6
First Quarter
Sep 14
Full
Sep 21
Last Quarter
Sep 28
New
Oct 5
First Quarter

Hourly Weather History & Observations

Time (EDT) Temp. Windchill Dew Point Humidity Pressure Visibility Wind Dir Wind Speed Gust Speed Precip Events Conditions
12:53 AM 54.0 °F - 48.0 °F 80% 30.07 in 10.0 mi NE 3.5 mph - N/A   Clear
1:53 AM 52.0 °F - 48.0 °F 86% 30.05 in 10.0 mi NE 5.8 mph - N/A   Clear
2:53 AM 51.1 °F - 48.0 °F 89% 30.03 in 10.0 mi NE 5.8 mph - N/A   Clear
3:53 AM 50.0 °F - 48.0 °F 93% 30.02 in 10.0 mi East 4.6 mph - N/A   Clear
4:53 AM 48.9 °F - 46.9 °F 93% 30.01 in 10.0 mi East 4.6 mph - N/A   Clear
5:43 AM 46.9 °F - 46.0 °F 97% 30.01 in 1.5 mi NE 4.6 mph - N/A   Clear
5:53 AM 46.0 °F 43.1 °F 46.0 °F 100% 30.01 in 1.0 mi ENE 5.8 mph - N/A   Clear
5:56 AM 46.9 °F - 46.0 °F 97% 30.01 in 3.0 mi ENE 5.8 mph - N/A   Clear
6:23 AM 46.0 °F 44.8 °F 45.0 °F 96% 30.01 in 2.5 mi ENE 3.5 mph - N/A   Partly Cloudy
6:40 AM 45.0 °F 43.5 °F 45.0 °F 100% 30.02 in 0.2 mi ENE 3.5 mph - N/A Fog Fog
6:53 AM 46.0 °F 44.8 °F 45.0 °F 96% 30.02 in 0.2 mi ENE 3.5 mph - N/A Fog Fog
7:23 AM 46.9 °F - 46.0 °F 97% 30.02 in 0.5 mi NE 6.9 mph - N/A   Mist
7:35 AM 48.0 °F - 46.9 °F 96% 30.02 in 0.5 mi ENE 6.9 mph - N/A   Scattered Clouds
7:53 AM 48.0 °F - 46.9 °F 96% 30.02 in 0.5 mi East 4.6 mph - N/A   Clear
8:08 AM 48.0 °F - 48.0 °F 100% 30.02 in 9.0 mi ENE 4.6 mph - N/A   Clear
8:53 AM 50.0 °F - 48.9 °F 96% 30.01 in 10.0 mi East 5.8 mph - N/A   Clear
9:53 AM 57.0 °F - 51.1 °F 81% 29.99 in 10.0 mi ENE 5.8 mph - N/A   Clear
10:53 AM 61.0 °F - 51.1 °F 70% 29.97 in 10.0 mi ESE 10.4 mph - N/A   Clear
11:53 AM 63.0 °F - 52.0 °F 67% 29.94 in 10.0 mi SE 11.5 mph - N/A   Clear
12:53 PM 66.0 °F - 52.0 °F 60% 29.92 in 10.0 mi SE 10.4 mph - N/A   Clear
1:53 PM 66.9 °F - 52.0 °F 59% 29.90 in 10.0 mi ESE 10.4 mph - N/A   Partly Cloudy
2:53 PM 66.0 °F - 51.1 °F 59% 29.89 in 10.0 mi SSE 6.9 mph - N/A   Scattered Clouds
3:53 PM 68.0 °F - 50.0 °F 52% 29.86 in 10.0 mi Variable 5.8 mph - N/A   Mostly Cloudy
4:53 PM 66.0 °F - 46.9 °F 50% 29.86 in 10.0 mi SSE 5.8 mph - N/A   Clear
5:53 PM 66.0 °F - 48.9 °F 54% 29.86 in 10.0 mi South 3.5 mph - N/A   Clear
6:53 PM 64.9 °F - 46.0 °F 50% 29.86 in 10.0 mi SSE 3.5 mph - N/A   Scattered Clouds
7:53 PM 62.1 °F - 48.0 °F 60% 29.86 in 10.0 mi East 8.1 mph - N/A   Mostly Cloudy
8:53 PM 61.0 °F - 46.0 °F 58% 29.86 in 10.0 mi ENE 6.9 mph - 0.00 in   Overcast
9:53 PM 59.0 °F - 48.0 °F 67% 29.85 in 10.0 mi East 4.6 mph - N/A   Overcast
10:53 PM 55.9 °F - 48.0 °F 75% 29.84 in 10.0 mi ENE 5.8 mph - N/A   Clear
11:53 PM 55.0 °F - 48.0 °F 77% 29.84 in 10.0 mi NE 4.6 mph - N/A   Clear